STARLINK-34474, 64474

Orbit data source: Space-Track

STARLINK-34474, 64474 is a payload satellite owned by SpaceX/Seattle (US) in LEO that was launched on Mon, 23 Jun 2025 UTC via an FALCON 9 launch vehicle from the Air Force Eastern Test Range (AFETR). Payload-class satellites include a variety of spacecraft equipped with specific instruments for various scientific and technological missions. These include communications satellites like Starlink; space stations such as the ISS; scientific satellites like the Hubble; Earth observation satellites from companies like Planet Labs, Umbra, and HawkEye 360; GPS; miniature CubeSats for education and research; and military/defense satellites.

Loading next visibility...
Identifier
64474, 2025-133C
Orbit
LEO
Last TLE update
20 hours ago
Origin
Manufacturer
SpaceX/Seattle
Mission
Operational spacecraft
Bus & Motor
STARLINK V2MO, Unknown motor
Mass
575 kg wet, ~530 kg dry
Launch date (UTC)
2025-06-23 (1 week ago)
Launch vehicle
FALCON 9
Launch site
Air Force Eastern Test Range (AFETR)
Object type
Payload
Rocket body
Debris
Shape & HBR
Unknown
Radar Cross Section
RCS unknown

Expand to show TLE details & history

TLE from 20 hours ago
0 STARLINK-34474
1 64474U 25133C   25181.91668981 -.01047407  00000-0 -42939-2 0  9998
2 64474  53.1555 219.2594 0000965  85.6381  93.7817 15.87752666  2431
Epoch: 2025-06-30T22:00Z
TLE epoch observation values (Epoch: 2025-06-30T22:00:01.999Z)
Latitude
0.3758°
Longitude
149.75144°
Altitude
309.501 km
Speed
7.724 km/s
True Right ascension
02h 35m 55s
True Declination
0° 22' 24"
Sunlit
Object was in daylight at epoch
Visualization orbit readout
Latitude
-47.19589°
Longitude
-87.77338°
Altitude
330.554 km
Speed
7.709 km/s
Apparent Right ascension
14h 27m 17s
Apparent Declination
-57° 23' 34"
Sunlit
Object is in daylight
Visualization observer readout
Local Sidereal Time
05:47:38
Azimuth
135.746° SSE
Elevation
-53.68°
Doppler factor
1
Orbital elements
Apogee altitude
309.494 km
Perigee altitude
308.203 km
Semi-major axis
6,686.985 km
Eccentricity
0.0001
Inclination
53.1555°
RAAN
219.2594°
Arg. of periapsis
85.6381°
True anomaly
Unknown
Mean anomaly
93.7817°
Eccentric anomaly
Unknown
Mean motion
3.96915 °/min
Orbital period
90.7 mins
BSTAR
-0.0042939
Loading maneuver chart data...
Loading SW <> Apogee altitude chart data...
Loading historical data...
Loading historical data...
Loading historical data...
Loading historical data...
Loading historical data...
Loading historical data...
Loading historical data...

STARLINK-34474 Visibility forecast

Observer location: undefined°, undefined°

Span
Click to sort rows by Start time (UTC) header in descending order
Start Az.
Max El. time (UTC)
Max El. Az.
Max El.
End time (UTC)
End Az.
4 mins2025-07-02 05:11:55.690Z239.935° WSW2025-07-02 05:13:55.690Z341.852° N42.269°2025-07-02 05:15:55.690Z43.465° NE
4 mins2025-07-02 11:32:55.690Z320.214° NNW2025-07-02 11:34:55.690Z58.403° ENE40.449°2025-07-02 11:36:55.690Z117.962° SE
|